{"data":{"norad_id":53291,"epoch":"2026-05-25T04:02:45.458016Z","epoch_age_seconds":70684,"freshness":"FRESH","line1":"1 53291U 22086BB  26145.16858169 -.00000009  00000+0  17536-4 0  9995","line2":"2 53291  53.2138 195.5812 0001371  72.2671 287.8471 15.08839990212804","mean_motion":15.0883999,"eccentricity":0.0001371,"inclination_deg":53.2138,"raan_deg":195.5812,"arg_perigee_deg":72.2671,"mean_anomaly_deg":287.8471,"bstar":1.7536e-5,"rev_number":21280,"period_min":95.437555310288,"perigee_km":538.79497812459,"apogee_km":540.69186093562,"semimajor_km":6917.8804195301,"source":"CELESTRAK","updated_at":"2026-05-25T13:38:17.391693Z"}}